Flag for Canada Weather past 2 weeks in Trois-Rivieres, Quebec, Canada

Now
65 °F

Mild.


Feels Like: 65 °F
Forecast: 56 / 71 °F
Wind: 10 mph from Northwest

Location: Trois Rivieres

Current Time: Jul 24, 2014 at 1:12:44 AM

Latest Report: Jul 24, 2014 at 12:00 AM


Visibility: N/A

Pressure: 29.85 "Hg

Humidity: 59%

Dew point: 51 °F

Location of Trois-RivieresLocation

Historic Weather in Trois-Rivieres — Graph

°F

Trois-Rivieres temperature yesterday

Maximum temperature yesterday: 76 °F (at 4:00 PM)
Minimum temperature yesterday: 67 °F (at 11:00 PM)
Average temperature yesterday: 73 °F

Past Weeks' High & Low Weather Summary

 TemperatureHumidityPressure
High79 °F (Jul 22, 7:00 PM)94% (Jul 16, 4:00 AM)30.27 "Hg (Jul 16, 4:00 AM)
Low58 °F (Jul 11, 5:00 AM)44% (Jul 10, 7:00 PM)29.37 "Hg (Jul 9, 12:00 AM)
Average69 °F74%29.95 "Hg
* Reported Midnight between Jul 8 and Jul 9 — Jul 23 11:00 PM, Trois-Rivieres, Weather by CustomWeather, © 2014

Note: Actual official high and low records may vary slightly from our data, if they occured in-between our weather recording intervals... More about our weather records

Advertising

Trois-Rivieres weather history for previous 24 hours

 ConditionsComfort  
Time TempWeatherWind HumidityBarometerVisibility
11:00 PM
Jul 23
67 °FMild.8 mph56%29.83 "HgN/A
10:00 PM69 °FMild.8 mph54%29.82 "HgN/A
9:00 PM71 °FMild.6 mph59%29.80 "HgN/A
8:00 PM74 °FMild.7 mph57%29.78 "HgN/A
7:00 PM75 °FMild.10 mph52%29.76 "HgN/A
6:00 PM74 °FMild.12 mph56%29.74 "HgN/A
5:00 PM74 °FMild.14 mph59%29.73 "HgN/A
4:00 PM76 °FMild.13 mph57%29.71 "HgN/A
3:00 PM74 °FMild.3 mph83%29.70 "HgN/A
2:00 PM72 °FMild.2 mph84%29.70 "HgN/A
1:00 PM74 °FMild.16 mph91%29.68 "HgN/A
12:00 PM72 °FMild.17 mph94%29.70 "HgN/A
11:00 AM73 °FMild.18 mph89%29.70 "HgN/A
10:00 AM74 °FMild.13 mph85%29.70 "HgN/A
9:00 AM74 °FMild.18 mph80%29.70 "HgN/A
8:00 AM74 °FMild.18 mph81%29.70 "HgN/A
7:00 AM74 °FMild.21 mph81%29.70 "HgN/A
6:00 AM73 °FMild.16 mph84%29.71 "HgN/A
5:00 AM72 °FMild.15 mph80%29.72 "HgN/A
4:00 AM74 °FMild.16 mph77%29.73 "HgN/A
2:00 AM74 °FMild.16 mph75%29.76 "HgN/A
1:00 AM74 °FMild.12 mph84%29.79 "HgN/A
Weather by CustomWeather, © 2014

See weather overviewHow to use our weather pages